Weather History for Ord, NE

Change the Weather History Date:

Monday, September 23, 2013

  Actual Average Record
Temperature  
Mean Temperature 65 °F 60 °F  
Max Temperature 74 °F 75 °F 90 °F (1999)
Min Temperature 55 °F 45 °F 30 °F (2012)
Degree Days  
Heating Degree Days 0    
Month to date heating degree days 25  
Since 1 July heating degree days 32  
Cooling Degree Days 0    
Month to date cooling degree days 135  
Year to date cooling degree days 895  
Growing Degree Days 14 (Base 50)    
Moisture  
Dew Point 50 °F    
Average Humidity 66    
Maximum Humidity 93    
Minimum Humidity 38    
Precipitation  
Precipitation 0.32 in 0.08 in 1.58 in (2004)
Month to date precipitation 0.71 1.99  
Year to date precipitation 20.14 20.90  
Sea Level Pressure  
Sea Level Pressure 29.66 in    
Wind  
Wind Speed 12 mph (SE)    
Max Wind Speed 29 mph    
Max Gust Speed 40 mph    
Visibility 9 miles    
Events Rain    
T = Trace of Precipitation, MM = Missing Value Source: NWS Daily Summary

Daily Weather History Graph

Daily Weather History Graph

Search for Another Location

Airport:

Trip Planner

Search our weather history database for the weather conditions in past years. The results will help you decide how hot, cold, wet, or windy it might be!

Date:

Astronomy

Sep. 23, 2013 Rise Set
Actual Time 7:24 AM CDT 7:30 PM CDT
Civil Twilight 6:56 AM CDT 7:58 PM CDT
Nautical Twilight 6:24 AM CDT 8:30 PM CDT
Astronomical Twilight 5:51 AM CDT 9:03 PM CDT
Moon 10:00 PM CDT (9/23) 11:48 AM CDT (9/23)
Length of Visible Light 13h 01m
Length of Day
12h 06m
Waning Gibbous, 81% of the Moon is Illuminated
Sep 23
Waning Gibbous
Sep 26
Last Quarter
Oct 4
New
Oct 11
First Quarter
Oct 18
Full

Hourly Weather History & Observations

Time (CDT) Temp. Dew Point Humidity Pressure Visibility Wind Dir Wind Speed Gust Speed Precip Events Conditions
12:53 AM 62.1 °F 48.0 °F 60% 29.69 in 10.0 mi SSE 10.4 mph 16.1 mph N/A   Clear
1:53 AM 59.0 °F 48.0 °F 67% 29.68 in 10.0 mi SE 10.4 mph - N/A   Clear
2:53 AM 59.0 °F 46.9 °F 64% 29.67 in 10.0 mi SSE 8.1 mph - N/A   Clear
3:53 AM 57.9 °F 46.9 °F 67% 29.65 in 10.0 mi SE 5.8 mph - N/A   Clear
4:53 AM 57.9 °F 46.9 °F 67% 29.63 in 10.0 mi SSE 13.8 mph - N/A   Clear
5:53 AM 57.0 °F 46.9 °F 69% 29.63 in 10.0 mi SE 11.5 mph 19.6 mph N/A   Clear
6:53 AM 55.9 °F 46.9 °F 72% 29.64 in 10.0 mi SSE 11.5 mph 19.6 mph N/A   Clear
7:53 AM 55.9 °F 46.9 °F 72% 29.66 in 10.0 mi SSE 8.1 mph - N/A   Clear
8:53 AM 59.0 °F 46.9 °F 64% 29.65 in 10.0 mi SE 11.5 mph 17.3 mph N/A   Clear
9:53 AM 64.0 °F 48.0 °F 56% 29.65 in 10.0 mi SSE 19.6 mph 25.3 mph N/A   Clear
10:53 AM 69.1 °F 48.0 °F 47% 29.64 in 10.0 mi SSE 17.3 mph 28.8 mph N/A   Clear
11:53 AM 73.0 °F 46.9 °F 39% 29.62 in 10.0 mi South 25.3 mph 33.4 mph N/A   Clear
12:53 PM 66.0 °F 52.0 °F 60% 29.66 in 9.0 mi South 13.8 mph 24.2 mph 0.00 in Rain Light Rain
1:53 PM 64.0 °F 53.1 °F 67% 29.64 in 10.0 mi SE 6.9 mph - 0.00 in Rain Light Rain
2:53 PM 70.0 °F 50.0 °F 49% 29.63 in 10.0 mi ESE 12.7 mph 25.3 mph 0.00 in   Mostly Cloudy
3:53 PM 70.0 °F 50.0 °F 49% 29.63 in 10.0 mi ESE 11.5 mph 24.2 mph N/A   Scattered Clouds
4:53 PM 69.1 °F 50.0 °F 51% 29.63 in 10.0 mi ESE 8.1 mph 18.4 mph N/A   Scattered Clouds
5:53 PM 64.0 °F 54.0 °F 70% 29.66 in 4.0 mi SE 4.6 mph - 0.04 in Rain Rain
6:53 PM 60.1 °F 55.9 °F 86% 29.67 in 5.0 mi ENE 9.2 mph - 0.11 in Rain Light Rain
7:53 PM 60.1 °F 55.0 °F 83% 29.66 in 10.0 mi NE 10.4 mph - 0.07 in Rain Light Rain
8:53 PM 57.9 °F 54.0 °F 87% 29.69 in 7.0 mi NE 11.5 mph - 0.05 in Rain Rain
9:53 PM 57.9 °F 55.0 °F 90% 29.70 in 9.0 mi NNE 11.5 mph 19.6 mph 0.04 in Rain Light Rain
10:53 PM 57.9 °F 55.0 °F 90% 29.71 in 10.0 mi North 12.7 mph - 0.01 in Rain Light Rain
11:53 PM 57.9 °F 55.0 °F 90% 29.72 in 10.0 mi North 13.8 mph - 0.00 in   Overcast